Find POEM-2

NORAD ID: 56308 Int'l Des: 2023-057 Owner: ISRO Country: IN operational
LEOCIRCULAR

現在のビュー

3D地球を読み込み中...

About POEM-2

POEM-2 (NORAD 56308) is a satellite launched Apr 22, 2023 by ISRO of IN. It operates in LEO, CIRCULAR orbit with a mass of 50.00 kg.

次回通過

Passes for default location (London). Set your location on the main map for personalized predictions.

高度履歴

Loading altitude history...

軌道要素

1 56308U 23057A 26195.08414669 .00001427 00000-0 64209-4 0 9999
2 56308 9.8884 66.4632 0021038 314.5968 45.2528 14.95050015176299
Epoch: Jul 14, 2026 • Age: 7 hours

現在のステータス

高度 577.2 km
遠地点 / 近地点 N/A
速度 7.58 km/s
衛星直下点 -8.89°S, 127.56°W
打ち上げ日 Apr 22, 2023
運用期間 3.2 years
タイプ other

技術仕様

分類 Payload
質量 50.00 kg
乾燥質量 50.00 kg
総質量 50.00 kg
長さ 0.50 m
直径 0.30 m
スパン 0.50 m
形状 Box
製造者 ISAC
バスタイプ POEM
フェーズステータス Attached in Orbit
所有者/国 ISRO/IN

Most Searched